Regina,

11:36 AM CST on December 18, 2017 (GMT -0600)
Regina

Weather History for CYQR - October, 2012

Change the Weather History Date:

Tuesday, October 23, 2012

  Actual Average Record
Temperature  
Mean Temperature 35 °F -  
Max Temperature 38 °F 37 °F 68 °F (1998)
Min Temperature 32 °F 17 °F 8 °F (2002)
Degree Days  
Heating Degree Days 30    
Moisture  
Dew Point 32 °F    
Average Humidity 91    
Maximum Humidity 100    
Minimum Humidity 59    
Precipitation  
Precipitation 0.00 in 0.02 in - ()
Sea Level Pressure  
Sea Level Pressure 29.81 in    
Wind  
Wind Speed 12 mph ()    
Max Wind Speed 22 mph    
Max Gust Speed 31 mph    
Visibility 7.0 miles    
Events Rain , Snow    
Averages and records for this station are not official NWS values.
T = Trace of Precipitation, MM = Missing Value Source: Averaged Metar Reports

Daily Weather History Graph

Daily Weather History Graph

Search for Another Location

Airport or City:

Trip Planner

Search our weather history database for the weather conditions in past years. The results will help you decide how hot, cold, wet, or windy it might be!

Date:

Astronomy

Oct. 23, 2012 Rise Set
Actual Time 7:35 AM CST 5:49 PM CST
Civil Twilight 7:01 AM CST 6:23 PM CST
Nautical Twilight 6:23 AM CST 7:01 PM CST
Astronomical Twilight 5:45 AM CST 7:38 PM CST
Moon 3:06 PM CST (10/23) 12:54 AM CST (10/23)
Length of Visible Light 11h 21m
Length of Day
10h 14m
Waxing Gibbous, 67% of the Moon is Illuminated
Oct 23
Waxing Gibbous
Oct 29
Full
Nov 6
Last Quarter
Nov 13
New
Nov 20
First Quarter

Hourly Weather History & Observations

Time (CST) Temp. Windchill Dew Point Humidity Pressure Visibility Wind Dir Wind Speed Gust Speed Precip Events Conditions
12:00 AM 38 °F - 29 °F 59% 29.92 in 9 mi SE 17.3 mph - -   Overcast
12:00 AM 37.4 °F 27.2 °F 28.4 °F 70% 29.93 in 15.0 mi SE 19.6 mph - N/A   Overcast
12:28 AM 35.6 °F 24.8 °F - N/A% - 15.0 mi SE 19.6 mph 29.9 mph N/A Rain Light Rain Showers
12:42 AM 35.6 °F 26.2 °F - N/A% - 15.0 mi ESE 15.0 mph 24.2 mph N/A Rain , Snow Light Rain
1:00 AM 35.6 °F 27.1 °F 32.0 °F 87% 29.89 in 12.0 mi ESE 12.7 mph - N/A Snow Light Snow
1:15 AM 33.8 °F 25.3 °F - N/A% - 3.0 mi ESE 11.5 mph - N/A Snow Light Snow
2:00 AM 33.8 °F 25.3 °F 32.0 °F 93% 29.89 in 2.0 mi ESE 11.5 mph 17.3 mph N/A Snow Light Snow
3:00 AM 32.0 °F 23.6 °F 32.0 °F 100% 29.86 in 2.0 mi East 10.4 mph - N/A Snow Light Snow
3:08 AM 32.0 °F 24.2 °F - N/A% - 1.0 mi East 9.2 mph - N/A Snow Light Snow
3:29 AM 32.0 °F 22.5 °F - N/A% - 2.0 mi ENE 12.7 mph - N/A Snow Light Snow
4:00 AM 32.0 °F 21.2 °F 32.0 °F 100% 29.82 in 2.0 mi ENE 16.1 mph - N/A Snow Light Snow
4:37 AM 32.0 °F 22.1 °F - N/A% - 3.0 mi East 13.8 mph - N/A Snow Light Snow
5:00 AM 32.0 °F 22.5 °F 32.0 °F 100% 29.83 in 2.5 mi East 12.7 mph - N/A Snow Light Snow
5:09 AM 32.0 °F 22.1 °F - N/A% - 2.5 mi East 13.8 mph - N/A Snow Light Snow
5:24 AM 32.0 °F 23.0 °F - N/A% - 2.0 mi East 11.5 mph - N/A Snow Light Snow
6:00 AM 32 °F - 32 °F 99% 29.80 in 1 mi East 11.5 mph - -  
6:00 AM 32.0 °F 23.0 °F 32.0 °F 100% 29.80 in 2.0 mi East 11.5 mph - N/A Snow Light Snow
6:29 AM 32.0 °F 23.0 °F - N/A% - 3.0 mi East 11.5 mph 18.4 mph N/A Snow Light Snow
6:47 AM 32.0 °F 22.5 °F - N/A% - 2.5 mi East 12.7 mph - N/A Snow Light Snow
7:00 AM 32.0 °F 22.1 °F 32.0 °F 100% 29.78 in 2.5 mi East 13.8 mph - N/A Snow Light Snow
7:27 AM 32.0 °F 23.0 °F - N/A% - 2.5 mi East 11.5 mph - N/A Snow Light Snow
7:41 AM 32.0 °F 22.1 °F - N/A% - 2.5 mi East 13.8 mph - N/A Snow Light Snow
8:00 AM 32.0 °F 22.5 °F 32.0 °F 100% 29.78 in 2.5 mi East 12.7 mph - N/A Snow Light Snow
8:50 AM 32.0 °F 22.5 °F - N/A% - 2.5 mi East 12.7 mph - N/A Snow Light Snow
9:00 AM 32.0 °F 23.6 °F 32.0 °F 100% 29.78 in 2.5 mi East 10.4 mph - N/A Snow Light Snow
9:46 AM 33.8 °F 25.8 °F - N/A% - 2.5 mi East 10.4 mph - N/A Snow Light Snow
10:00 AM 33.8 °F 25.8 °F 32.0 °F 93% 29.77 in 2.5 mi East 10.4 mph - N/A Snow Light Snow
11:00 AM 33.8 °F 24.8 °F 33.8 °F 100% 29.75 in 3.0 mi ESE 12.7 mph - N/A   Overcast
12:00 PM 34 °F - 34 °F 98% 29.76 in 7 mi SE 8.1 mph - -   Overcast
12:00 PM 33.8 °F 27.0 °F 33.8 °F 100% 29.77 in 4.0 mi SE 8.1 mph - N/A   Overcast
12:28 PM 35.6 °F 29.9 °F - N/A% - 3.0 mi SE 6.9 mph - N/A   Overcast
12:50 PM 35.6 °F 30.7 °F - N/A% - 2.0 mi South 5.8 mph - N/A   Overcast
1:00 PM 35.6 °F 30.7 °F 33.8 °F 93% 29.76 in 1.8 mi SSE 5.8 mph - N/A   Overcast
1:35 PM 35.6 °F 31.7 °F - N/A% - 4.0 mi SSE 4.6 mph - N/A   Overcast
2:00 PM 35.6 °F 29.9 °F 35.6 °F 100% 29.74 in 15.0 mi South 6.9 mph - N/A   Overcast
2:25 PM 35.6 °F 31.7 °F - N/A% - 15.0 mi SSW 4.6 mph - N/A   Overcast
3:00 PM 37.4 °F 32.1 °F 33.8 °F 87% 29.76 in 15.0 mi SW 6.9 mph - N/A   Overcast
4:00 PM 37.4 °F 33.8 °F 35.6 °F 93% 29.77 in 15.0 mi SW 4.6 mph - N/A   Overcast
5:00 PM 37.4 °F 32.8 °F 35.6 °F 93% 29.78 in 15.0 mi WSW 5.8 mph - N/A   Overcast
6:00 PM 36 °F - 33 °F 84% 29.81 in 9 mi WSW 16.1 mph - -   Overcast
6:00 PM 35.6 °F 25.9 °F 33.8 °F 93% 29.80 in 15.0 mi WSW 16.1 mph - N/A   Overcast
7:00 PM 35.6 °F 27.1 °F 32.0 °F 87% 29.81 in 15.0 mi WSW 12.7 mph - N/A   Overcast
7:38 PM 33.8 °F 21.9 °F - N/A% - 15.0 mi West 21.9 mph - N/A   Overcast
8:00 PM 33.8 °F 22.2 °F 28.4 °F 81% 29.83 in 15.0 mi West 20.7 mph 27.6 mph N/A   Overcast
9:00 PM 33.8 °F 22.5 °F 28.4 °F 81% 29.85 in 15.0 mi West 19.6 mph 31.1 mph N/A   Overcast
10:00 PM 32.0 °F 20.8 °F 26.6 °F 80% 29.86 in 15.0 mi West 17.3 mph 25.3 mph N/A   Overcast
11:00 PM 32.0 °F 20.5 °F 26.6 °F 80% 29.85 in 15.0 mi WSW 18.4 mph - N/A   Mostly Cloudy